Regional Weather Roundup
Issued by NWS New Orleans/Baton Rouge, LA

Home | Current Version | Previous Version | Text Only | Print | Product List | Glossary On
Versions: 1 2 3 4 5 6 7 8 9 10 11 12 13 14 15 16 17 18 19 20 21 22 23 24 25 26 27 28 29 30 31 32 33 34 35 36 37 38 39 40 41 42 43 44 45 46 47 48 49 50
000
ASUS44 KLIX 221810
RWRLIX
NEW ORLEANS REGIONAL WEATHER ROUNDUP
NATIONAL WEATHER SERVICE NEW ORLEANS LA
1200 PM CST MON DEC 22 2014

NOTE: "FAIR" INDICATES FEW OR NO CLOUDS BELOW 12,000 FEET WITH NO
      SIGNIFICANT WEATHER AND/OR OBSTRUCTIONS TO VISIBILITY.
      SKY/WX - SKY CONDITION AND SIGNIFICANT WEATHER.
      TMP - AIR TEMPERATURE.     DP    - DEWPOINT TEMPERATURE.
      RH  - RELATIVE HUMIDITY.   PRES  - PRESSURE.
      HI  - HEAT INDEX.          WCI   - WIND CHILL INDEX.

*  THESE STATIONS ARE NOT NWS OR FAA STATIONS AND ARE NOT UNDER
   NWS QUALITY CONTROL.

LAZ038-040-048-061>063-065>067-069-221900-
SOUTHEAST LOUISIANA

CITY           SKY/WX    TMP DP  RH WIND       PRES   REMARKS
N.O. AUDUBON     N/A     76  68  77 MISG        N/A
6HR MIN TEMP:  58; 6HR MAX TEMP:  76; 6HR PCP:  0.17;

N.O. INTL ARPT PTSUNNY   72  66  81 S13       29.76F
6HR MIN TEMP:  58; 6HR MAX TEMP:  73; 6HR PCP:  0.21;

N.O. LAKEFRONT PTSUNNY   74  65  73 S12       29.77F
6HR MIN TEMP:  59; 6HR MAX TEMP:  74; 6HR PCP:  0.44;

N.O. DOWNTOWN* CLOUDY    72  64  78 S12G18    29.78F
6HR MIN TEMP:  59; 6HR MAX TEMP:  72; 6HR PCP:  0.31;

SLIDELL        CLOUDY    71  65  81 VRB6      29.77F
6HR MIN TEMP:  58; 6HR MAX TEMP:  71; 6HR PCP:  0.06;

BATON ROUGE    PTSUNNY   69  63  81 S13       29.75F
6HR MIN TEMP:  54; 6HR MAX TEMP:  69; 6HR PCP: TRACE;

BOOTHVILLE     MOSUNNY   72  67  84 SW14      29.80F
6HR MIN TEMP:  62; 6HR MAX TEMP:  73;

BELLE CHASSE   PTSUNNY   75  68  78 S18G29    29.77F
6HR MIN TEMP:  59; 6HR MAX TEMP:  75; 6HR PCP:  0.05;

BOGALUSA*        N/A     69  62  78 S6        29.79F
6HR MIN TEMP:  57; 6HR MAX TEMP:  69;

GALLIANO*      CLOUDY    76  69  76 MISG      29.78F
6HR MIN TEMP:  54; 6HR MAX TEMP:  77;

NEW ROADS*     CLOUDY    64  63  97 S6        29.75F FOG
6HR MIN TEMP:  54; 6HR MAX TEMP:  64;

GONZALES*      CLOUDY    71  68  90 S7        29.75F
6HR MIN TEMP:  57; 6HR MAX TEMP:  71;

HAMMOND*       NOT AVBL
HOUMA*         PTSUNNY   72  68  88 S14       29.77F FOG
PORT FOURCHON* PTCLDY    73  68  83 S10G18    29.82F

$$

MSZ070-080>082-221900-
SOUTHERN MISSISSIPPI

CITY           SKY/WX    TMP DP  RH WIND       PRES   REMARKS
MCCOMB         CLOUDY    63  61  93 S6        29.76F FOG
6HR MIN TEMP:  54; 6HR MAX TEMP:  63;

GULFPORT       CLOUDY    65  63  93 SE9       29.79F
6HR MIN TEMP:  58; 6HR MAX TEMP:  65; 6HR PCP:  0.52;

BILOXI         NOT AVBL
PASCAGOULA     CLOUDY    69  64  84 SE15      29.79F
6HR MIN TEMP:  58; 6HR MAX TEMP:  69; 6HR PCP:  0.03;

STENNIS ARPT*  CLOUDY    64  61  88 SE6       29.79F FOG

$$

COASTAL OBSERVATIONS
LAKE AND NEARSHORE STATIONS

STATION/POSITION TIME  TEMP    WIND        PRES    WAVE
                       AIR SEA DIR/SP/G            HT/PER
                 (UTC) (F)     (DEG/KT/KT) (MB)    (FT/S)
PASCAGOULA       1800   68     120/  7/ 12 1008.7
WAVELAND YACHT   1800   61     130/  2/  3 1008.1
GRAND ISLE       1800   71 60  210/ 11/ 16 1009.3
SOUTHWEST PASS   1800   66                 1010.0
NEW CANAL        1800   72 57  210/  9/ 12 1008.5
SHELL BEACH      1800   71 58  200/ 12/ 17 1008.4

OFFSHORE STATIONS

STATION/POSITION TIME  TEMP    WIND        PRES    WAVE
                       AIR SEA DIR/SP/G            HT/PER
                 (UTC) (F)     (DEG/KT/KT) (MB)    (FT/S)
64 S DAUPHIN ISL 1800   74 74  210/ 14/ 16 1009.3    2/ 5

$$




USA.gov is the U.S. government's official web portal to all federal, state and local government web resources and services.